AirNav   Pilot Hours Calculator
 
 1017 users online  

KTFP McCampbell-Porter Airport
Ingleside, Texas, USA

GOING TO INGLESIDE?


FAA INFORMATION EFFECTIVE 20 JUNE 2019

Location

FAA Identifier: TFP
Lat/Long: 27-54-46.9000N / 097-12-41.4000W
27-54.781667N / 097-12.690000W
27.9130278 / -97.2115000
(estimated)
Elevation: 17.6 ft. / 5 m (estimated)
Variation: 07E (1985)
From city: 2 miles N of INGLESIDE, TX
Time zone: UTC -5 (UTC -6 during Standard Time)
Zip code: 78336

Airport Operations

Airport use: Open to the public
Activation date: 03/1991
Control tower: no
ARTCC: HOUSTON CENTER
FSS: SAN ANGELO FLIGHT SERVICE STATION
NOTAMs facility: SJT (NOTAM-D service available)
Attendance: 0800-1800
Wind indicator: lighted
Segmented circle: yes
Lights: MIRL RY 13/31 PRESET LOW INTST; TO INCR INTST ACTVT - CTAF (122.7).
Beacon: white-green (lighted land airport)
Operates sunset to sunrise.

Airport Communications

CTAF/UNICOM: 122.7
WX AWOS-3: 118.775 (361-758-8961)
CORPUS APPROACH: 120.9
CORPUS DEPARTURE: 120.9
WX AWOS-3 at RAS (9 nm SE): 118.425 (361-749-0537)
WX ASOS at RKP (14 nm NE): 119.275 (361-729-2372)
WX ASOS at CRP (18 nm SW): PHONE 361-289-0191
WX AWOS-1 at T69 (19 nm NW): 118.25 (361-364-1844)

Nearby radio navigation aids

VOR radial/distance  VOR name  Freq  Var
CRPr078/12.4CORPUS CHRISTI VORTAC115.5009E
NGPr012/14.3TRUAX VORTAC114.0006E

 
NDB name  Hdg/Dist  Freq  Var  ID
MELLON RANCH175/22.037506EMNO -- -. ---

Airport Services

Fuel available: 100LL JET-A
FUEL SELF-SERVICE.
Parking: hangars and tiedowns
Airframe service: MAJOR
Powerplant service: MAJOR

Runway Information

Runway 13/31

Dimensions: 5000 x 75 ft. / 1524 x 23 m
Surface: asphalt, in good condition
Runway edge lights: medium intensity
RUNWAY 13  RUNWAY 31
Latitude: 27-55.096700N27-54.466995N
Longitude: 097-12.989438W097-12.389185W
Elevation: 15.0 ft.13.2 ft.
Traffic pattern: leftleft
Runway heading: 133 magnetic, 140 true313 magnetic, 320 true
Markings: nonprecision, in good conditionnonprecision, in good condition
Visual slope indicator: 2-light PAPI on left (3.00 degrees glide path)2-light PAPI on left (3.00 degrees glide path)
Touchdown point: yes, no lightsyes, no lights

Airport Ownership and Management from official FAA records

Ownership: Publicly-owned
Owner: SAN PATRICIO COUNTY
400 WEST SINTON ST.
SINTON, TX 78387
Phone (361) 226-0112
Manager: GARY LEE DAVIS
3141 FM 3512
ARANSAS PASS, TX 78336
Phone (361) 226-0112
317-410-0724

Airport Operational Statistics

Aircraft based on the field: 41
Single engine airplanes: 34
Multi engine airplanes: 5
Jet airplanes: 1
Helicopters: 1
    
Aircraft operations: avg 85/day *
48% local general aviation
32% transient general aviation
19% military
* for 12-month period ending 09 March 2017

Additional Remarks

FOR CD CTC CORPUS CHRISTI APCH AT 361-299-4230.

Instrument Procedures

NOTE: All procedures below are presented as PDF files. If you need a reader for these files, you should download the free Adobe Reader.

NOT FOR NAVIGATION. Please procure official charts for flight.
FAA instrument procedures published for use from 20 June 2019 at 0901Z to 19 July 2019 at 0900Z.

 
IAPs - Instrument Approach Procedures
RNAV (GPS) RWY 13   download (213KB)
RNAV (GPS) RWY 31   download (214KB)
NOTE: Special Alternate Minimums apply   download (29KB)

Other nearby airports with instrument procedures:

KRAS - Mustang Beach Airport (9 nm SE)
KRKP - Aransas County Airport (14 nm NE)
KNGP - Corpus Christi Naval Air Station/Truax Field (14 nm S)
KCRP - Corpus Christi International Airport (18 nm SW)
T69 - Alfred C 'Bubba' Thomas Airport (19 nm NW)
 
Loc | Ops | Rwys | IFR | FBO | Links
Com | Nav | Svcs | Stats | Notes
Area around KTFP (McCampbell-Porter Airport)
 
Road maps at: MapQuest Bing Google
 
Aerial photo
WARNING: Photo may not be current or correct
Aerial photo of KTFP (McCampbell-Porter Airport)
Do you have a better or more recent aerial photo of McCampbell-Porter Airport that you would like to share? If so, please send us your photo.

 
Sectional chart

 
Airport diagram
CAUTION: Diagram may not be current
Diagram of KTFP (McCampbell-Porter Airport)
 
Airport distance calculator
Flying to McCampbell-Porter Airport? Find the distance to fly.

From to KTFP

Sunrise and sunset
Times for 24-Jun-2019
 Local
(UTC-5)
 Zulu
(UTC)
Morning civil twilight06:0811:08
Sunrise06:3511:35
Sunset20:2801:28
Evening civil twilight20:5401:54

Current date and time
Zulu (UTC)  25-Jun-2019 01:31:26
Local (UTC-5)  24-Jun-2019 20:31:26
 
METAR
KTFP 250115Z AUTO 10013KT 7SM SCT019 SCT070 BKN085 28/24 A2987 RMK AO2 LTG DSNT SW T02760240 PNO
KRAS 
9nm SE 
250115Z AUTO 08013G18KT 7SM BKN080 27/23 A2988 RMK AO2 T02730233
KRKP 
13nm NE 
250112Z AUTO 09013KT 5SM HZ SCT020 BKN080 26/23 A2988 RMK AO2 T02610228
KNGP 
14nm S 
250056Z 10017G24KT 9SM FEW013 BKN075 BKN180 OVC250 27/24 A2986 RMK AO2 PK WND 11028/0050 SLP111 T02670239 $
KCRP 
18nm SW 
250051Z 10013KT 10SM FEW013 SCT060 SCT075 BKN200 OVC250 28/24 A2987 RMK AO2 SLP112 T02780239
TAF
KNGP 
14nm S 
2423/2523 10017G24KT 9999 VCSH SCT012 SCT032 SCT110 BKN160 OVC250 QNH2984INS TEMPO 2423/2502 12019G26KT 9999 -SHRA BKN011 BKN028 FM250300 13012G18KT 9999 SCT010 BKN014 BKN190 OVC250 QNH2986INS TEMPO 2503/2506 FEW010 SCT014 BKN190 BKN250 FM250700 15008KT 9999 FEW010 BKN016 BKN180 BKN250 QNH2988INS FM251000 15012G18KT 9999 VCSH SCT012 BKN018 BKN180 OVC250 QNH2988INS TEMPO 2510/2515 BKN012 OVC018 FM251600 14015G23KT 9999 VCTS SCT016CB BKN025 BKN180 OVC250 QNH2992INS FM251800 14016G24KT 9999 VCTS SC
KCRP 
18nm SW 
242058Z 2421/2518 11015G22KT P6SM VCSH FEW010 SCT015 BKN090 TEMPO 2421/2424 VRB18G27KT -SHRA FEW007 BKN015 OVC030 FM250000 11011KT P6SM FEW040 SCT120 FM250600 14010KT P6SM BKN020
NOTAMs
Click for the latest NOTAMs
NOTAMs are issued by the DoD/FAA and will open in a separate window not controlled by AirNav.

 

 
 

FBO, Fuel Providers, and Aircraft Ground Support

  
 Business Name 
 
 Contact 
 
 Services / Description 
 
Fuel Prices
 
Comments
  
Corpus Christi Jet Center UNICOM 122.70
361-758-2000
[web site]
[email]
We will match KCRP contract fuel rates!
More info and photos of Corpus Christi Jet Center
Avfuel
100LL Jet A
FS $4.60 $4.60 
SS $4.20 $4.20 
 Updated 18-Jun-2019
 
   7 read write
FS=Full service
SS=Self service
Update Fuel Prices
 

Would you like to see your business listed on this page?

 If your business provides an interesting product or service to pilots, flight crews, aircraft, or users of the McCampbell-Porter Airport, you should consider listing it here.  To start the listing process, click on the button below
 
Add a business
 

Other Pages about McCampbell-Porter Airport

Update a link
 
Copyright © AirNav, LLC. All rights reserved. Privacy Policy  Contact